Sioux Falls, SD

4:39 AM CST on December 13, 2019 (GMT -0600)
Foss

Weather History for KFSD - August, 2019

Change the Weather History Date:

Saturday, August 10, 2019

  Actual Average Record
Temperature  
Mean Temperature 76 °F 72 °F  
Max Temperature 83 °F 83 °F 104 °F (1947)
Min Temperature 68 °F 61 °F 40 °F (1904)
Degree Days  
Heating Degree Days 0 0  
Month to date heating degree days 0 0  
Since 1 June heating degree days 20 59  
Since 1 July heating degree days 0 8  
Cooling Degree Days 11 7  
Month to date cooling degree days 91 76  
Year to date cooling degree days 619 503  
Since 1 June cooling degree days 604 467  
Growing Degree Days 25 (Base 50)    
Moisture  
Dew Point 68 °F    
Average Humidity 81    
Maximum Humidity 93    
Minimum Humidity 69    
Precipitation  
Precipitation 0.00 in 0.10 in 2.47 in (1911)
Month to date precipitation 0.39 1.01  
Year to date precipitation 27.58 17.35  
Snow  
Snow 0.00 in 0.00 in 0.00 in ()
Month to date snowfall 0.0 0.0  
Since 1 June snowfall T 0.0  
Since 1 July snowfall T 0.0  
Snow Depth 0.00 in    
Sea Level Pressure  
Sea Level Pressure 29.88 in    
Wind  
Wind Speed 8 mph (South)    
Max Wind Speed 15 mph    
Max Gust Speed 19 mph    
Visibility 10 miles    
Events      
T = Trace of Precipitation, MM = Missing Value Source: NWS Daily Summary

Daily Weather History Graph

Daily Weather History Graph

Search for Another Location

Airport or City:

Astronomy

Aug. 10, 2019 Rise Set
Actual Time 6:25 AM CDT 8:38 PM CDT
Civil Twilight 5:54 AM CDT 9:09 PM CDT
Nautical Twilight 5:15 AM CDT 9:48 PM CDT
Astronomical Twilight 4:31 AM CDT 10:31 PM CDT
Moon 5:25 PM CDT (8/10) 2:00 AM CDT (8/10)
Length of Visible Light 15h 15m
Length of Day
14h 12m
Waxing Gibbous, 79% of the Moon is Illuminated
Aug 10
Waxing Gibbous
Aug 15
Full
Aug 23
Last Quarter
Aug 30
New
Sep 5
First Quarter

Hourly Weather History & Observations

Time (CDT) Temp. Heat Index Dew Point Humidity Pressure Visibility Wind Dir Wind Speed Gust Speed Precip Events Conditions
12:56 AM 68.0 °F - 64.0 °F 87% 29.86 in 10.0 mi East 6.9 mph - N/A   Clear
1:25 AM 69.1 °F - 64.0 °F 84% 29.90 in 10.0 mi East 8.1 mph - N/A   Overcast
1:56 AM 68.0 °F - 64.0 °F 87% 29.86 in 10.0 mi East 9.2 mph - N/A   Mostly Cloudy
2:34 AM 69.1 °F - 63.0 °F 81% 29.89 in 10.0 mi ESE 8.1 mph - N/A   Overcast
2:56 AM 69.1 °F - 63.0 °F 81% 29.88 in 10.0 mi ESE 5.8 mph - N/A   Overcast
3:56 AM 69.1 °F - 62.1 °F 78% 29.87 in 10.0 mi ESE 9.2 mph - N/A   Partly Cloudy
4:56 AM 69.1 °F - 62.1 °F 78% 29.86 in 10.0 mi SE 9.2 mph - N/A   Mostly Cloudy
5:56 AM 69.1 °F - 62.1 °F 78% 29.85 in 10.0 mi SE 6.9 mph - N/A   Overcast
6:56 AM 69.1 °F - 63.0 °F 81% 29.87 in 10.0 mi SSE 8.1 mph - N/A   Mostly Cloudy
7:56 AM 71.1 °F - 64.0 °F 78% 29.88 in 10.0 mi SSE 9.2 mph 16.1 mph N/A   Overcast
8:37 AM 72.0 °F - 64.9 °F 78% 29.91 in 10.0 mi South 8.1 mph - N/A   Overcast
8:56 AM 73.0 °F - 66.0 °F 79% 29.89 in 10.0 mi South 9.2 mph - N/A   Overcast
9:19 AM 73.0 °F - 66.0 °F 79% 29.91 in 10.0 mi South 8.1 mph - N/A   Overcast
9:46 AM 75.0 °F - 66.9 °F 76% 29.91 in 10.0 mi SSE 9.2 mph - N/A   Mostly Cloudy
9:56 AM 73.9 °F - 68.0 °F 82% 29.89 in 10.0 mi SSE 9.2 mph - N/A   Mostly Cloudy
10:56 AM 75.9 °F - 70.0 °F 82% 29.88 in 10.0 mi South 12.7 mph - N/A   Overcast
11:31 AM 79.0 °F - 71.1 °F 77% 29.89 in 10.0 mi South 11.5 mph - N/A   Mostly Cloudy
11:56 AM 79.0 °F - 71.1 °F 77% 29.86 in 10.0 mi South 12.7 mph - N/A   Overcast
12:56 PM 81.0 °F 85.2 °F 72.0 °F 74% 29.86 in 10.0 mi South 10.4 mph - N/A   Overcast
1:56 PM 81.0 °F 85.2 °F 72.0 °F 74% 29.85 in 10.0 mi Variable 4.6 mph - N/A   Overcast
2:01 PM 81.0 °F 85.2 °F 72.0 °F 74% 29.87 in 10.0 mi SSW 5.8 mph - N/A   Overcast
2:56 PM 81.0 °F 85.2 °F 72.0 °F 74% 29.86 in 10.0 mi West 3.5 mph - N/A   Overcast
3:56 PM 82.0 °F 86.7 °F 72.0 °F 71% 29.87 in 10.0 mi WNW 8.1 mph - N/A   Mostly Cloudy
4:13 PM 81.0 °F 85.8 °F 73.0 °F 77% 29.89 in 10.0 mi NW 10.4 mph - N/A   Mostly Cloudy
4:56 PM 82.0 °F 86.7 °F 72.0 °F 71% 29.87 in 10.0 mi NW 10.4 mph - N/A   Mostly Cloudy
5:28 PM 81.0 °F 85.2 °F 72.0 °F 74% 29.90 in 10.0 mi NNW 5.8 mph - N/A   Mostly Cloudy
5:56 PM 81.0 °F 85.2 °F 72.0 °F 74% 29.88 in 10.0 mi North 6.9 mph - N/A   Mostly Cloudy
6:19 PM 81.0 °F 85.2 °F 72.0 °F 74% 29.90 in 10.0 mi NW 6.9 mph - N/A   Mostly Cloudy
6:56 PM 82.0 °F 86.7 °F 72.0 °F 71% 29.87 in 10.0 mi NW 5.8 mph - N/A   Scattered Clouds
7:56 PM 79.0 °F - 71.1 °F 77% 29.86 in 10.0 mi NW 5.8 mph - N/A   Scattered Clouds
8:56 PM 75.0 °F - 70.0 °F 84% 29.88 in 10.0 mi NW 4.6 mph - N/A   Scattered Clouds
9:56 PM 73.9 °F - 70.0 °F 87% 29.90 in 10.0 mi NW 6.9 mph - N/A   Mostly Cloudy
10:56 PM 73.0 °F - 69.1 °F 87% 29.91 in 10.0 mi WNW 5.8 mph - N/A   Scattered Clouds
11:56 PM 72.0 °F - 69.1 °F 91% 29.92 in 10.0 mi NW 5.8 mph - N/A   Scattered Clouds